EW5674 Weather Reports


Display with metric or nautical units.
time (UTC)temp
F
wind
direction
speed
MPH
gust
MPH
rain 1hr
in
rain 24hr
in
rain mn
in
humidity
%
barometer
mb
20260503004523 44 202 2.0 7.0 0.00 0.02 0.00 1 1011.1
20260503003019 44 212 1.0 6.0 0.00 0.02 0.00 1 1011.2
20260503001515 44 201 1.0 4.0 0.00 0.02 0.00 1 1011.2
20260503000022 44 194 0.0 4.0 0.00 0.02 0.00 1 1011.4
20260502234508 44 212 1.0 5.0 0.00 0.02 0.00 1 1011.3
20260502233000 44 207 1.0 5.0 0.00 0.02 0.00 1 1011.2
20260502231606 45 212 1.0 8.0 0.00 0.02 0.00 1 1011.3
20260502230053 45 212 2.0 6.0 0.00 0.02 0.00 1 1011.3
20260502224549 45 212 1.0 5.0 0.00 0.02 0.00 1 1011.3
20260502223044 45 207 0.0 4.0 0.00 0.02 0.00 1 1011.3
20260502221540 45 192 1.0 6.0 0.00 0.02 0.00 1 1011.3
20260502220040 45 212 1.0 3.0 0.00 0.02 0.00 1 1011.2
20260502214532 45 212 0.0 3.0 0.00 0.02 0.02 1 1011.2
20260502213038 45 212 0.0 5.0 0.00 0.02 0.02 1 1011.1
20260502211526 45 212 1.0 5.0 0.00 0.02 0.02 1 1011.2
20260502210018 46 179 0.0 4.0 0.00 0.02 0.02 1 1011.3
20260502204514 47 198 0.0 4.0 0.00 0.02 0.02 1 1011.3
20260502203009 48 196 0.0 4.0 0.00 0.02 0.02 1 1011.2
20260502201507 49 173 0.0 4.0 0.00 0.02 0.02 1 1011.1
20260502200001 49 221 0.0 4.0 0.00 0.02 0.02 1 1011.0
20260502194600 49 222 1.0 5.0 0.00 0.02 0.02 1 1010.8
20260502193052 50 221 1.0 8.0 0.00 0.02 0.02 1 1010.7
20260502191551 50 212 2.0 7.0 0.00 0.02 0.02 2 1010.5
20260502190044 50 207 1.0 7.0 0.00 0.02 0.02 3 1010.6
20260502184539 51 194 2.0 8.0 0.00 0.02 0.02 5 1010.5
20260502183034 52 196 1.0 8.0 0.00 0.02 0.02 6 1010.5
20260502181538 52 212 2.0 6.0 0.00 0.02 0.02 13 1010.4
20260502163104 55 212 3.0 6.0 0.00 0.02 0.02 27 1010.3
20260502161558 55 237 2.0 5.0 0.00 0.02 0.02 30 1010.4
20260502151540 55 258 1.0 5.0 0.00 0.02 0.02 31 1010.7
20260502130104 55 196 0.0 4.0 0.00 0.02 0.02 15 1011.8
20260502123049 53 175 1.0 4.0 0.00 0.02 0.02 3 1012.0
20260502121546 52 201 0.0 2.0 0.00 0.02 0.02 1 1012.0
20260502114539 51 217 0.0 2.0 0.00 0.02 0.02 1 1012.1
20260502113033 51 217 0.0 3.0 0.00 0.02 0.02 1 1012.1
20260502111528 51 254 0.0 1.0 0.01 0.02 0.02 1 1011.9
20260502110024 50 254 0.0 2.0 0.01 0.02 0.02 1 1011.8
20260502104520 50 254 1.0 5.0 0.01 0.02 0.02 1 1011.7
20260502103020 51 247 0.0 3.0 0.02 0.02 0.02 1 1012.0
20260502101511 51 247 0.0 3.0 0.01 0.01 0.01 1 1012.5
20260502080104 52 42 0.0 0.0 0.00 0.00 0.00 32 1012.9
20260502070048 52 41 0.0 1.0 0.00 0.00 0.00 36 1012.9
20260502064557 51 356 0.0 2.0 0.00 0.00 0.00 37 1012.9
20260502063044 51 356 0.0 1.0 0.00 0.00 0.00 37 1012.9
20260502061544 50 356 0.0 1.0 0.00 0.00 0.00 36 1013.0
20260502060046 48 356 0.0 3.0 0.00 0.00 0.00 35 1012.9
20260502054553 47 356 0.0 1.0 0.00 0.00 0.00 33 1012.9
20260502053042 45 356 0.0 0.0 0.00 0.00 0.00 33 1013.1
20260502051541 44 356 0.0 0.0 0.00 0.00 0.00 30 1013.2
20260502050045 43 356 0.0 0.0 0.00 0.00 0.00 29 1013.3
20260502044540 43 356 0.0 0.0 0.00 0.00 0.00 29 1013.5
20260502043035 42 356 0.0 0.0 0.00 0.00 0.00 32 1013.6
20260502041535 42 356 0.0 1.0 0.00 0.00 0.00 32 1014.0
20260502040041 42 356 0.0 1.0 0.00 0.00 0.00 33 1014.0
20260502034533 42 356 0.0 2.0 0.00 0.00 0.00 34 1014.0
20260502033029 42 356 0.0 1.0 0.00 0.00 0.00 34 1014.2
20260502031528 42 356 0.0 1.0 0.00 0.00 0.00 35 1014.3
20260502030028 42 356 0.0 1.0 0.00 0.00 0.00 37 1014.5
20260502024525 43 356 0.0 1.0 0.00 0.00 0.00 38 1014.7
20260502023020 43 356 0.0 1.0 0.00 0.00 0.00 40 1014.8
20260502021515 44 356 0.0 2.0 0.00 0.00 0.00 41 1015.1
20260502020012 45 356 0.0 1.0 0.00 0.00 0.00 43 1015.2
20260502014524 46 356 0.0 1.0 0.00 0.00 0.00 45 1015.5
20260502013005 47 356 0.0 3.0 0.00 0.00 0.00 46 1015.7
20260502011503 47 5 0.0 4.0 0.00 0.00 0.00 45 1015.9
20260502010001 47 53 2.0 4.0 0.00 0.00 0.00 45 1016.1